Wind_Speed
4 4 12 8 4 3 8 10 6 4 2 5 6 5 5 7 2 4 7 5 6 7 6 2 8 13 19 23 24 20 20 21 18 20 17 11 5 10 13 14 17 23 23 19
4 7 6 8 6 2 5 8 5 1 5 3 5 6 7 8 6 8 8 8 8 5 6 4 7 11 16 18 20 19 16 14 15 16 17 14 17 19 21 20 17 15 14 16
6 5 10 7 4 4 2 7 6 4 4 3 6 4 5 5 4 7 7 6 5 9 9 6 6 12 14 17 15 12 10 12 12 13 14 15 12 14 13 13 9 10 8 11
5 4 13 9 7 6 4 5 5 8 5 4 3 4 5 6 8 6 7 8 8 9 5 5 7 8 16 15 15 11 7 8 6 4 2 5 12 13 16 19 21 22 19 16
6 8 12 8 7 8 5 6 6 3 4 4 1 3 6 3 7 9 8 10 9 9 8 9 6 8 5 5 7 10 13 14 15 16 17 20 22 21 20 23 25 27 27 27
5 4 8 8 10 11 6 6 6 5 3 1 6 5 4 5 6 5 8 6 8 10 8 7 12 16 16 18 23 24 24 24 24 25 24 25 25 23 24 23 24 24 24 23
3 4 4 9 9 4 6 7 2 1 1 5 4 4 7 6 3 5 8 2 9 7 9 13 13 15 21 22 23 26 28 27 25 26 26 24 21 20 20 19 19 21 21 21
5 3 8 6 9 8 6 8 5 4 4 2 4 5 6 2 2 4 5 6 9 11 13 14 13 18 25 28 24 27 27 26 23 22 21 19 17 16 16 15 14 14 14 16
4 2 3 9 5 8 4 5 8 6 3 4 3 5 5 4 5 7 8 4 10 14 15 15 11 20 24 28 29 29 29 27 24 21 18 15 12 11 11 10 11 13 13 15
5 6 7 4 7 2 9 6 4 3 4 3 4 3 5 3 5 8 8 7 5 10 14 12 12 19 24 29 30 28 28 27 25 22 17 14 11 9 7 6 7 10 12 16
2 4 1 6 6 8 3 3 5 5 4 5 1 5 5 6 3 7 9 6 7 10 12 13 9 14 20 27 28 26 25 24 23 19 17 14 11 8 5 4 5 7 10 13
3 4 3 4 0 5 7 9 7 5 4 0 4 6 3 5 6 5 5 7 8 8 6 8 11 17 20 23 24 24 22 21 18 15 14 12 8 5 2 2 3 6 7 7
6 1 3 5 5 4 4 4 5 6 3 5 6 5 2 3 3 6 1 6 9 9 9 7 7 9 13 18 18 17 15 14 12 11 9 7 3 1 2 3 4 4 4 6
8 3 6 5 6 4 4 4 4 6 4 5 6 4 4 2 4 7 6 4 9 9 9 7 6 9 13 13 11 11 12 10 7 5 5 4 3 2 3 3 3 5 8 11
5 5 3 2 2 3 2 8 8 6 5 7 7 9 8 9 8 5 7 7 13 12 9 7 6 5 11 10 11 11 9 6 5 6 7 7 5 4 4 6 9 12 15 19
3 2 3 5 3 4 5 6 9 4 4 1 6 2 3 6 9 7 14 13 16 14 14 12 10 13 14 14 13 13 12 10 7 10 10 7 7 9 12 14 18 20 24 27
4 6 3 3 2 2 4 4 5 5 5 4 3 2 6 5 11 7 11 13 13 13 12 14 12 15 16 19 16 17 13 11 11 10 9 11 14 17 20 23 26 29 31 33
6 6 3 4 3 2 3 4 6 13 4 1 6 7 10 13 12 13 8 11 10 9 11 12 16 18 22 20 18 13 14 13 12 13 16 18 21 23 26 28 28 31 30 29
3 5 4 5 3 1 2 3 4 3 2 2 9 14 16 17 18 11 11 11 12 11 13 17 22 20 19 19 15 14 15 16 18 17 17 19 21 22 25 27 28 27 26 27
6 4 4 3 5 7 6 3 5 5 2 4 9 15 17 4 4 2 5 10 12 17 19 18 18 17 17 16 16 17 18 17 15 15 18 21 21 22 24 25 25 25 20 18
3 3 5 3 3 5 3 4 3 6 5 9 8 5 4 5 5 8 7 11 17 17 16 15 16 15 14 15 17 18 18 15 16 17 18 21 22 22 21 22 22 20 19 20
5 5 2 3 4 2 4 1 6 5 7 10 6 11 18 17 14 11 9 10 13 14 15 15 14 11 13 17 17 14 14 18 20 20 22 22 20 19 18 19 19 18 16 16
2 4 6 3 3 4 3 0 4 10 14 7 14 11 18 15 12 10 9 9 12 13 12 12 11 10 14 17 17 17 20 21 20 19 17 16 17 19 19 17 15 15 13 13
2 3 4 3 6 5 7 10 10 12 15 14 14 13 13 16 11 10 8 7 9 11 12 13 14 15 15 17 15 16 18 17 15 15 16 18 17 16 15 13 13 13 14 15
1 3 5 5 4 11 11 9 15 16 17 17 12 11 12 13 9 8 7 8 11 11 10 10 10 11 11 13 13 14 15 15 14 16 16 15 14 15 16 14 17 16 15 16
1 5 4 4 10 8 4 5 14 17 13 13 16 11 11 13 10 11 9 12 11 10 9 11 12 10 12 14 15 17 20 18 17 16 15 16 16 17 18 18 18 15 16 19
Wind_Direction
185 142 194 165 154 117 122 150 115 159 169 124 180 195 185 204 170 198 166 189 215 244 282 215 218 219 210 213 219 225 223 222 243 244 250 257 316 325 323 320 324 292 287 286
95 219 178 139 145 182 113 147 172 58 189 153 138 214 248 166 194 191 204 196 204 222 272 255 208 220 226 224 225 226 241 249 272 268 275 286 294 311 322 333 310 300 283 286
139 201 158 143 163 158 76 129 154 139 143 60 116 307 248 261 200 177 202 208 193 201 208 239 221 230 238 240 245 257 266 277 284 290 298 297 316 345 11 13 7 3 322 305
177 166 157 161 172 134 138 189 139 129 108 194 160 251 244 242 257 227 202 200 208 205 194 194 178 207 230 248 263 277 287 302 315 327 17 31 69 72 61 64 55 50 40 29
229 144 159 157 179 139 192 169 164 144 123 122 145 133 262 211 244 256 256 193 209 209 185 186 177 157 181 171 147 128 112 101 93 90 93 91 88 87 83 74 65 58 53 49
187 149 154 186 153 168 158 112 47 54 97 215 214 144 268 194 199 231 242 238 203 177 201 140 131 137 123 122 124 120 111 103 101 100 98 94 90 83 74 65 59 51 46 41
149 172 190 136 139 133 126 94 65 28 207 216 168 116 231 258 217 243 271 247 194 177 164 149 142 137 134 131 126 121 115 110 106 102 100 96 93 85 76 63 51 40 31 26
149 165 155 174 158 158 162 143 150 157 139 201 165 226 248 216 163 293 273 248 174 171 167 164 152 148 142 141 139 131 125 124 120 114 109 103 95 82 79 71 59 45 33 24
139 205 132 160 133 134 177 139 188 97 24 73 226 309 319 350 333 360 330 215 182 177 168 158 145 146 146 149 150 147 140 137 136 131 126 117 99 85 77 66 41 36 28 16
192 114 153 176 96 70 152 164 91 11 111 175 275 259 235 312 323 323 309 246 187 162 153 155 157 158 155 160 159 154 151 153 151 147 141 131 125 116 102 67 36 19 8 2
118 90 50 111 166 156 86 124 62 115 128 165 169 266 215 207 260 279 284 215 170 166 164 146 145 154 155 164 165 162 164 163 162 158 148 141 141 134 112 65 23 359 351 350
203 119 117 177 6 170 159 166 140 125 217 13 151 261 223 231 269 256 221 170 141 140 137 132 135 149 157 165 170 173 172 172 168 160 151 146 148 137 117 34 341 333 329 332
184 48 50 11 3 27 138 146 119 111 89 191 142 256 166 268 42 14 33 156 131 123 118 114 109 122 147 167 173 173 173 169 161 155 144 137 135 84 346 317 321 322 326 330
114 119 147 165 199 144 132 145 151 129 119 181 209 183 250 187 79 43 11 62 104 105 100 97 100 112 132 154 161 160 155 155 146 145 106 65 33 352 349 2 3 343 337 328
113 144 95 37 114 112 149 140 160 163 183 150 206 182 187 187 169 112 50 84 98 85 84 91 97 110 115 120 127 135 128 108 99 83 71 64 64 57 38 4 343 330 324 321
21 113 92 33 7 13 74 104 114 96 122 349 116 152 98 98 93 90 89 83 88 94 85 77 68 65 62 70 73 75 69 69 81 80 67 47 21 3 348 336 326 321 319 318
104 126 92 161 22 124 58 271 120 98 64 120 178 214 138 104 91 87 99 97 96 92 87 83 65 62 54 61 67 65 67 67 60 52 28 4 351 342 334 327 323 320 320 318
127 100 82 126 88 151 265 292 144 108 68 118 90 82 94 101 82 56 28 98 80 73 84 80 79 62 60 60 56 53 44 34 21 10 357 346 339 332 327 322 322 322 321 318
84 114 91 128 122 84 47 226 161 142 347 337 129 121 117 111 87 44 33 66 88 85 76 71 76 70 59 45 30 22 18 9 1 353 342 334 331 325 323 321 322 321 321 317
91 89 110 139 134 195 221 213 145 128 315 168 148 143 146 132 96 120 39 73 75 70 68 68 64 56 43 24 10 8 8 358 355 341 331 328 327 324 321 322 323 322 321 312
106 36 124 111 122 288 209 174 191 140 233 142 130 106 84 88 111 126 98 76 74 75 72 65 58 55 35 14 5 11 1 356 337 328 327 328 329 326 324 322 324 324 316 320
156 127 149 95 98 207 12 105 169 170 82 114 89 109 102 107 103 102 92 81 73 65 54 48 47 41 21 11 6 360 355 344 340 335 332 329 329 331 328 325 326 328 320 314
144 177 146 149 194 303 269 284 72 132 120 109 109 110 116 111 106 103 95 83 72 65 56 48 43 31 14 11 9 359 350 346 339 331 327 326 327 334 336 326 319 318 321 316
98 120 91 119 354 27 77 82 79 93 100 102 108 116 116 116 117 108 98 88 85 73 54 37 32 22 10 7 2 359 348 341 334 331 326 327 320 322 329 327 327 326 325 321
114 69 117 82 95 93 47 76 100 91 94 93 83 94 110 111 99 111 102 89 81 66 51 46 38 24 13 7 2 351 343 340 335 331 327 327 327 332 334 337 334 326 323 326
28 149 159 167 172 117 102 98 110 101 101 102 107 91 77 102 107 108 99 101 90 66 54 43 34 34 22 15 9 1 358 352 341 333 336 341 342 342 341 338 333 339 339 342
Height
746 754 749 751 753 748 758 763 764 765 754 759 772 767 761 761 760 761 764 762 762 760 755 756 756 758 760 762 764 768 774 779 781 784 786 788 788 790 792 792 791 792 794 794
751 755 749 747 748 749 754 765 768 757 754 760 772 771 761 763 763 762 762 764 764 760 756 755 756 758 761 762 763 768 771 775 778 781 783 784 786 786 788 783 788 790 789 790
749 743 743 746 752 755 760 766 766 764 758 761 769 777 768 757 756 759 759 758 759 758 757 756 757 757 760 761 764 769 773 775 777 779 779 781 780 782 785 789 790 788 786 786
741 734 740 749 753 755 766 754 754 759 772 789 765 800 775 765 760 755 756 759 758 757 756 756 758 759 760 762 765 768 771 774 776 777 777 779 781 785 791 792 791 788 787 785
737 736 742 748 748 749 759 753 757 756 772 775 776 793 781 765 766 760 751 754 756 754 753 755 756 760 761 763 766 770 773 775 777 777 780 781 784 789 792 792 791 793 790 788
728 725 734 736 737 741 744 754 764 775 782 796 780 784 785 776 762 753 746 743 748 754 754 754 756 758 762 767 769 772 774 777 779 781 783 784 789 792 793 794 792 793 793 792
728 729 726 727 741 742 748 767 799 797 798 801 779 785 777 752 749 748 745 744 747 749 752 751 754 760 764 768 772 773 775 780 783 784 786 788 792 793 793 793 793 792 793 793
741 745 727 722 734 748 754 762 789 787 797 788 775 781 767 747 745 744 742 741 743 746 746 749 752 758 763 768 773 776 777 780 783 786 788 790 791 792 792 793 794 794 794 793
731 726 715 715 721 731 751 762 753 777 779 785 781 766 753 749 748 745 744 741 741 740 742 746 753 757 762 767 773 775 778 782 784 786 788 790 791 792 792 793 793 792 793 792
716 727 714 716 716 724 734 740 766 783 791 792 784 776 771 754 753 750 747 742 742 742 744 749 753 757 761 769 774 778 779 782 783 785 787 788 790 791 792 793 793 793 791 790
707 721 720 715 726 737 741 750 761 765 778 791 796 783 758 754 752 754 748 741 742 743 746 750 758 762 766 771 776 779 782 784 785 787 787 788 791 791 791 792 793 792 792 790
708 728 733 719 711 714 723 740 749 780 774 777 781 780 746 751 750 748 740 739 742 745 751 753 760 766 771 776 780 783 786 788 789 789 788 789 791 792 792 792 792 792 792 791
710 731 746 735 727 719 723 732 742 755 764 772 784 774 750 750 750 750 746 742 741 747 754 760 766 770 776 779 783 786 789 791 791 791 790 791 792 792 792 792 791 790 790 788
700 730 734 747 730 728 730 728 734 743 775 768 763 755 752 749 751 752 751 746 745 749 757 765 770 773 778 781 784 787 789 791 791 793 791 792 792 792 791 791 790 790 789 786
705 723 722 724 721 720 723 728 733 734 741 750 743 746 747 747 751 752 751 750 751 757 764 770 775 778 780 784 786 789 791 792 793 792 790 792 793 792 791 791 790 788 786 783
715 731 724 732 724 727 728 729 734 737 739 742 741 741 740 746 747 753 753 756 758 766 769 776 781 783 786 788 791 791 790 792 792 791 792 793 792 790 790 788 788 785 782 778
717 729 738 743 732 731 738 732 728 737 741 741 743 736 741 749 755 759 756 761 767 771 775 779 786 789 792 791 792 792 794 793 792 793 793 793 791 789 788 786 784 780 776 772
722 731 743 748 741 750 731 728 725 737 744 742 744 748 751 757 766 770 769 768 774 780 784 783 786 790 792 794 795 798 794 794 794 792 791 791 789 788 786 783 779 775 771 767
716 728 748 752 756 738 737 733 731 726 750 745 747 751 754 759 764 782 784 783 785 789 790 788 789 793 796 798 801 799 797 795 793 793 793 792 790 786 782 778 774 770 766 762
717 722 735 755 744 750 734 723 722 726 752 745 744 747 749 753 776 794 794 792 793 792 792 795 796 798 800 804 803 799 797 797 796 795 792 789 786 782 778 774 770 766 763 759
724 730 735 752 760 741 721 720 719 740 746 743 747 754 755 768 777 793 796 796 796 797 800 801 801 804 805 805 804 800 798 798 797 794 790 785 782 778 774 770 767 764 761 756
717 731 750 751 747 740 723 718 726 733 739 743 754 764 771 778 787 793 797 799 801 802 803 804 805 807 808 806 802 802 800 797 793 790 786 783 780 776 773 769 765 762 758 754
718 718 730 738 737 737 730 728 727 728 734 753 759 769 771 781 790 796 800 803 804 806 808 810 810 810 808 806 803 799 797 795 793 790 787 783 779 775 771 767 764 760 756 753
713 715 728 734 743 740 737 737 737 739 746 756 763 772 778 785 793 799 803 807 809 811 811 810 809 808 807 805 803 802 799 796 793 790 786 782 778 774 770 766 762 758 754 750
715 717 733 747 746 743 746 745 746 753 757 763 772 777 784 788 797 801 806 809 811 812 812 812 812 811 809 807 805 802 799 796 793 789 785 781 776 771 766 763 758 755 752 749
717 721 726 735 733 733 753 756 753 757 767 773 777 786 791 793 799 804 808 811 813 814 813 812 811 810 809 807 804 801 797 794 790 786 781 777 773 768 764 759 755 752 749 745